When you browse on this site, cookies collect data to enhance your experience and personalize the content and advertising you see.
Visit our Privacy Policy to learn more. By continuing to use the site, you agree to this use of cookies and data.
  • In Romania
  • List of Countries
  • For 7 days
  • Water Temperature
  • Satellite Maps
  • Weather Map
  • Weather Widgets
  • user-avatar
    Login

    Hourly Weather Thimphu

    Today, 20 June, Thursday

    Time Temperature Precipitation Wind Pressure Humidity
    00:00 +11°C° 0 mm 1 mps 524 mmHg 93%
    01:00 +11°C° 0 mm 1 mps 523 mmHg 92%
    02:00 +10°C° 0 mm 1 mps 523 mmHg 92%
    03:00 +10°C° 0 mm 1 mps 522 mmHg 91%
    04:00 +10°C° 0 mm 1 mps 523 mmHg 90%
    05:00 +11°C° 0 mm 1 mps 523 mmHg 88%
    06:00 +12°C° 0 mm 1 mps 524 mmHg 89%
    07:00 +14°C° 0 mm 1 mps 525 mmHg 81%
    08:00 +16°C° 0 mm 1 mps 527 mmHg 74%
    09:00 +19°C° 0 mm 1 mps 528 mmHg 67%
    10:00 +19°C° 0.2 mm 1 mps 528 mmHg 65%
    11:00 +19°C° 0.2 mm 2 mps 528 mmHg 64%
    12:00 +19°C° 0.2 mm 2 mps 528 mmHg 63%
    13:00 +19°C° 0.4 mm 2 mps 527 mmHg 67%
    14:00 +19°C° 0.4 mm 2 mps 526 mmHg 71%
    15:00 +18°C° 0.4 mm 2 mps 526 mmHg 75%
    16:00 +17°C° 0.4 mm 2 mps 525 mmHg 80%
    17:00 +16°C° 0.4 mm 2 mps 525 mmHg 85%
    18:00 +15°C° 0.4 mm 1 mps 524 mmHg 90%
    19:00 +14°C° 0.1 mm 1 mps 524 mmHg 92%
    20:00 +14°C° 0.1 mm 1 mps 524 mmHg 94%
    21:00 +12°C° 0.1 mm 0 mps 524 mmHg 96%
    22:00 +11°C° 0.1 mm 0 mps 524 mmHg 95%
    23:00 +11°C° 0.1 mm 0 mps 524 mmHg 95%

    Tomorrow, 21 June, Friday

    Time Temperature Precipitation Wind Pressure Humidity
    00:00 +11°C° 0.1 mm 0 mps 524 mmHg 95%
    01:00 +11°C° 0.1 mm 0 mps 524 mmHg 95%
    02:00 +11°C° 0.1 mm 0 mps 524 mmHg 94%
    03:00 +10°C° 0.1 mm 0 mps 524 mmHg 94%
    04:00 +11°C° 0 mm 0 mps 524 mmHg 93%
    05:00 +11°C° 0 mm 0 mps 524 mmHg 91%
    06:00 +11°C° 0 mm 0 mps 525 mmHg 90%
    07:00 +15°C° 0.1 mm 1 mps 526 mmHg 83%
    08:00 +18°C° 0.1 mm 1 mps 528 mmHg 75%
    09:00 +20°C° 0.1 mm 1 mps 529 mmHg 68%
    10:00 +19°C° 0.5 mm 2 mps 529 mmHg 68%
    11:00 +20°C° 0.5 mm 2 mps 529 mmHg 68%
    12:00 +20°C° 0.5 mm 2 mps 529 mmHg 68%
    13:00 +20°C° 1 mm 2 mps 528 mmHg 72%
    14:00 +19°C° 1 mm 2 mps 527 mmHg 77%
    15:00 +18°C° 1 mm 2 mps 526 mmHg 82%
    16:00 +17°C° 0.7 mm 2 mps 526 mmHg 85%
    17:00 +18°C° 0.7 mm 1 mps 525 mmHg 87%
    18:00 +16°C° 0.7 mm 1 mps 525 mmHg 90%
    19:00 +15°C° 0.3 mm 1 mps 525 mmHg 92%
    20:00 +14°C° 0.3 mm 1 mps 525 mmHg 94%
    21:00 +12°C° 0.3 mm 0 mps 525 mmHg 96%
    22:00 +12°C° 0.1 mm 0 mps 525 mmHg 95%
    23:00 +12°C° 0.1 mm 1 mps 525 mmHg 95%

    Day after tomorrow, 22 June, Saturday

    Time Temperature Precipitation Wind Pressure Humidity
    00:00 +12°C° 0.1 mm 1 mps 525 mmHg 94%
    01:00 +12°C° 0 mm 1 mps 524 mmHg 93%
    02:00 +11°C° 0 mm 1 mps 524 mmHg 93%
    03:00 +11°C° 0 mm 1 mps 523 mmHg 92%
    04:00 +11°C° 0 mm 1 mps 524 mmHg 91%
    05:00 +12°C° 0 mm 1 mps 524 mmHg 90%
    06:00 +11°C° 0 mm 0 mps 525 mmHg 89%
    07:00 +14°C° 0.1 mm 1 mps 526 mmHg 85%
    08:00 +16°C° 0.1 mm 1 mps 527 mmHg 81%
    09:00 +18°C° 0.1 mm 1 mps 528 mmHg 77%
    10:00 +18°C° 0.5 mm 1 mps 528 mmHg 78%
    11:00 +17°C° 0.5 mm 2 mps 527 mmHg 79%
    12:00 +17°C° 0.5 mm 2 mps 527 mmHg 80%
    13:00 +18°C° 0.4 mm 2 mps 527 mmHg 76%
    14:00 +19°C° 0.4 mm 1 mps 527 mmHg 73%
    15:00 +20°C° 0.4 mm 1 mps 527 mmHg 69%
    16:00 +19°C° 0.3 mm 1 mps 526 mmHg 74%
    17:00 +18°C° 0.3 mm 1 mps 526 mmHg 80%
    18:00 +16°C° 0.3 mm 1 mps 525 mmHg 85%
    19:00 +15°C° 0.1 mm 1 mps 525 mmHg 88%
    20:00 +13°C° 0.1 mm 0 mps 525 mmHg 91%
    21:00 +12°C° 0.1 mm 0 mps 525 mmHg 94%
    22:00 +12°C° 0.1 mm 0 mps 525 mmHg 94%
    23:00 +12°C° 0.1 mm 0 mps 525 mmHg 94%

    23 June, Sunday

    Time Temperature Precipitation Wind Pressure Humidity
    00:00 +11°C° 0.1 mm 0 mps 524 mmHg 94%
    01:00 +11°C° 0 mm 0 mps 524 mmHg 93%
    02:00 +11°C° 0 mm 0 mps 524 mmHg 93%
    03:00 +11°C° 0 mm 0 mps 524 mmHg 92%
    04:00 +11°C° 0 mm 0 mps 524 mmHg 91%
    05:00 +11°C° 0 mm 0 mps 524 mmHg 90%
    06:00 +12°C° 0 mm 0 mps 525 mmHg 89%
    07:00 +14°C° 0.1 mm 1 mps 526 mmHg 84%
    08:00 +16°C° 0.1 mm 1 mps 527 mmHg 79%
    09:00 +19°C° 0.1 mm 1 mps 528 mmHg 73%
    10:00 +20°C° 0.4 mm 1 mps 528 mmHg 70%
    11:00 +20°C° 0.4 mm 2 mps 528 mmHg 68%
    12:00 +21°C° 0.4 mm 2 mps 528 mmHg 65%
    13:00 +21°C° 0.8 mm 2 mps 528 mmHg 68%
    14:00 +20°C° 0.8 mm 2 mps 527 mmHg 71%
    15:00 +20°C° 0.8 mm 2 mps 526 mmHg 73%
    16:00 +19°C° 0.4 mm 2 mps 526 mmHg 78%
    17:00 +18°C° 0.4 mm 2 mps 525 mmHg 82%
    18:00 +18°C° 0.4 mm 1 mps 524 mmHg 86%
    19:00 +16°C° 0.1 mm 1 mps 524 mmHg 90%
    20:00 +15°C° 0.1 mm 1 mps 524 mmHg 93%
    21:00 +13°C° 0.1 mm 1 mps 524 mmHg 97%
    22:00 +13°C° 0.1 mm 1 mps 524 mmHg 96%
    23:00 +13°C° 0.1 mm 1 mps 524 mmHg 96%

    24 June, Monday

    Time Temperature Precipitation Wind Pressure Humidity
    00:00 +13°C° 0.1 mm 1 mps 524 mmHg 95%
    01:00 +13°C° 0.1 mm 1 mps 524 mmHg 95%
    02:00 +12°C° 0.1 mm 0 mps 524 mmHg 94%
    03:00 +12°C° 0.1 mm 0 mps 524 mmHg 94%
    04:00 +12°C° 0.2 mm 0 mps 524 mmHg 92%
    05:00 +12°C° 0.2 mm 0 mps 524 mmHg 91%
    06:00 +14°C° 0.2 mm 1 mps 524 mmHg 90%
    07:00 +15°C° 0.3 mm 1 mps 525 mmHg 87%
    08:00 +16°C° 0.3 mm 1 mps 526 mmHg 84%
    09:00 +18°C° 0.3 mm 1 mps 527 mmHg 81%
    10:00 +19°C° 0.2 mm 1 mps 527 mmHg 77%
    11:00 +19°C° 0.2 mm 2 mps 527 mmHg 73%
    12:00 +20°C° 0.2 mm 2 mps 527 mmHg 70%
    13:00 +20°C° 0.4 mm 2 mps 527 mmHg 74%
    14:00 +19°C° 0.4 mm 2 mps 526 mmHg 78%
    15:00 +18°C° 0.4 mm 2 mps 525 mmHg 82%
    16:00 +18°C° 0.3 mm 2 mps 525 mmHg 85%
    17:00 +17°C° 0.3 mm 2 mps 524 mmHg 89%
    18:00 +16°C° 0.3 mm 1 mps 523 mmHg 93%
    19:00 +15°C° 0.2 mm 1 mps 524 mmHg 94%
    20:00 +15°C° 0.2 mm 1 mps 524 mmHg 96%
    21:00 +13°C° 0.2 mm 0 mps 524 mmHg 97%
    22:00 +13°C° 0.1 mm 0 mps 524 mmHg 97%
    23:00 +13°C° 0.1 mm 0 mps 524 mmHg 97%

    25 June, Tuesday

    Time Temperature Precipitation Wind Pressure Humidity
    00:00 +13°C° 0.1 mm 0 mps 525 mmHg 97%
    01:00 +13°C° 0.2 mm 0 mps 524 mmHg 97%
    02:00 +13°C° 0.2 mm 0 mps 524 mmHg 97%
    03:00 +13°C° 0.2 mm 0 mps 524 mmHg 97%
    04:00 +13°C° 0.3 mm 0 mps 524 mmHg 96%
    05:00 +13°C° 0.3 mm 0 mps 524 mmHg 95%
    06:00 +13°C° 0.3 mm 0 mps 524 mmHg 94%
    07:00 +13°C° 1.1 mm 0 mps 524 mmHg 95%
    08:00 +14°C° 1.1 mm 0 mps 524 mmHg 95%
    09:00 +14°C° 1.1 mm 0 mps 524 mmHg 95%
    10:00 +14°C° 1.7 mm 0 mps 524 mmHg 95%
    11:00 +15°C° 1.7 mm 1 mps 524 mmHg 94%
    12:00 +16°C° 1.7 mm 1 mps 524 mmHg 94%
    13:00 +16°C° 1.3 mm 1 mps 524 mmHg 92%
    14:00 +16°C° 1.3 mm 1 mps 524 mmHg 91%
    15:00 +17°C° 1.3 mm 2 mps 524 mmHg 90%
    16:00 +16°C° 0.6 mm 1 mps 524 mmHg 92%
    17:00 +16°C° 0.6 mm 1 mps 523 mmHg 95%
    18:00 +15°C° 0.6 mm 1 mps 523 mmHg 97%
    19:00 +15°C° 0.4 mm 1 mps 523 mmHg 97%
    20:00 +13°C° 0.4 mm 0 mps 524 mmHg 98%
    21:00 +13°C° 0.4 mm 0 mps 524 mmHg 99%
    22:00 +13°C° 0.3 mm 0 mps 524 mmHg 98%
    23:00 +13°C° 0.3 mm 0 mps 524 mmHg 98%
    Show more